DateTimeUTC,F1_A11,F1_S11,BsB_S11,BsG_S11,BsR_S11,BbsB_S11,BbsG_S11,BbsR_S11,BaB_A11,BaG_A11,BaR_A11,Tu_S11,T_S11,Uu_S11,U_S11,P_S11,T1_A11
2021-08-15T06:00:00Z,00000200,20000000,,,,,,,-000.62,-000.26,-000.06,18.8,25.2,16.7,11.3,0674.4,30.9
2021-08-15T06:01:00Z,00000200,20000000,,,,,,,0000.24,0000.01,0000.31,18.8,25.2,16.7,11.3,0674.4,30.9
2021-08-15T06:02:00Z,00000200,20000000,,,,,,,-000.19,0000.07,-000.19,18.7,25.2,16.7,11.3,0674.4,30.9
2021-08-15T06:03:00Z,00000200,60000000,,,,,,,0000.21,0000.02,0000.25,18.7,25.2,16.8,11.3,0674.4,30.9
2021-08-15T06:04:00Z,00000200,40000000,0000.21,0000.42,-000.19,-000.04,0000.25,-000.38,-000.18,0000.08,-000.04,18.9,25.0,16.5,11.4,0675.3,30.9
2021-08-15T06:05:00Z,00000200,00000000,0000.73,0000.45,0000.15,0000.61,0000.68,0000.24,0000.21,0000.09,-000.19,18.9,25.0,16.4,11.4,0675.4,30.9
2021-08-15T06:06:00Z,00000200,00000000,0001.03,0000.31,0000.34,-000.46,0000.28,0000.03,0000.39,0000.29,0000.39,18.9,25.0,16.5,11.4,0675.4,30.9
2021-08-15T06:07:00Z,00000200,00000000,0000.83,0000.41,0000.15,-000.14,0000.42,-000.01,-000.11,-000.16,-000.27,18.9,24.9,16.5,11.4,0675.4,30.9
2021-08-15T06:08:00Z,00000200,00000000,0001.13,0000.17,0000.06,0000.35,0000.36,0000.02,0000.23,0000.22,0000.42,18.9,24.9,16.6,11.5,0675.4,30.9
2021-08-15T06:09:00Z,00000200,00000000,0001.07,0000.29,0000.14,0000.28,0000.19,0000.06,-000.03,0000.07,-000.07,18.9,25.0,16.5,11.5,0675.4,30.9
2021-08-15T06:10:00Z,00000200,00000000,0000.49,0000.25,0000.23,0000.01,0000.23,0000.11,-000.20,-000.04,0000.32,18.9,25.0,16.6,11.5,0675.3,30.9
2021-08-15T06:11:00Z,00000200,00000000,0001.17,0000.23,0000.30,0000.09,0000.33,0000.29,0000.39,0000.10,0000.12,18.9,24.9,16.7,11.6,0675.3,30.9
2021-08-15T06:12:00Z,00000200,00000000,0000.40,-000.03,0000.22,0000.52,0000.06,0000.38,0000.17,0000.14,-000.20,18.9,24.9,16.7,11.6,0675.3,30.9
2021-08-15T06:13:00Z,00000200,00000000,0000.41,0000.08,0000.07,-000.19,0000.24,-000.12,-000.05,0000.28,0000.22,19.0,24.9,16.7,11.6,0675.3,30.9
2021-08-15T06:14:00Z,00000200,00000000,0000.44,0000.36,0000.28,-000.05,0000.49,0000.03,0000.35,0000.05,-000.13,19.0,24.9,16.6,11.5,0675.3,30.9
2021-08-15T06:15:00Z,00000200,00000000,0000.75,0000.46,0000.32,0000.05,0000.38,0000.25,-000.09,-000.16,0000.17,19.0,24.9,16.7,11.6,0675.3,30.9
2021-08-15T06:16:00Z,00000200,00000000,0000.72,0000.44,0000.05,0000.06,0000.16,0000.07,0000.20,0000.26,-000.09,19.0,24.9,16.7,11.6,0675.3,30.9
2021-08-15T06:17:00Z,00000200,00000000,0000.79,0000.38,0000.27,0000.36,0000.26,0000.20,0000.09,0000.44,0000.59,19.0,24.9,16.7,11.6,0675.3,30.9
2021-08-15T06:18:00Z,00000200,00000000,0000.87,0000.45,0000.32,0000.34,0000.50,0000.07,-000.31,-000.37,-000.38,19.0,24.9,16.7,11.6,0675.3,30.9
2021-08-15T06:19:00Z,00000200,00000000,0001.17,0000.35,0000.15,-000.37,0000.37,0000.05,0000.22,0000.01,0000.02,19.0,24.9,16.8,11.6,0675.3,30.9
2021-08-15T06:20:00Z,00000200,00000000,0000.94,0000.50,0000.21,0000.23,0000.35,-000.21,-000.15,-000.08,-000.09,19.0,24.9,16.7,11.6,0675.3,30.9
2021-08-15T06:21:00Z,00000200,00000000,0000.80,0000.15,0000.11,0000.37,0000.35,0000.27,0000.41,0000.18,0000.31,19.0,24.9,16.7,11.6,0675.3,30.9
2021-08-15T06:22:00Z,00000200,00000000,0001.25,-000.04,0000.39,0000.02,0000.24,-000.35,-000.21,-000.09,-000.14,19.0,24.9,16.8,11.6,0675.3,30.9
2021-08-15T06:23:00Z,00000200,00000000,-000.58,0000.06,0000.42,-000.11,0000.30,0000.09,0000.10,0000.21,0000.05,19.0,24.9,16.8,11.7,0675.3,30.9
2021-08-15T06:24:00Z,00000200,00000000,0001.34,0000.22,0000.34,0000.32,0000.27,0000.28,0000.24,-000.22,0000.13,19.0,24.9,16.7,11.6,0675.3,30.9
2021-08-15T06:25:00Z,00000200,00000000,0000.84,0000.08,0000.25,-000.25,-000.02,0000.19,-000.04,0000.50,0000.04,19.0,24.9,16.7,11.6,0675.2,30.9
2021-08-15T06:26:00Z,00000200,00000000,0001.01,0000.27,-000.04,-000.28,0000.16,0000.12,0000.20,-000.00,0000.22,19.0,24.9,16.7,11.6,0675.2,30.9
2021-08-15T06:27:00Z,00000200,00000000,0001.14,0000.53,0000.39,0000.15,0000.31,0000.23,0000.23,0000.44,0000.11,19.0,24.9,16.7,11.6,0675.2,30.9
2021-08-15T06:28:00Z,00000200,00000000,-000.05,0000.01,0000.06,0000.74,-000.02,0000.01,0000.09,-000.45,0000.08,19.0,24.9,16.7,11.6,0675.2,30.9
2021-08-15T06:29:00Z,00000200,00000000,0000.43,0000.19,0000.10,-000.08,0000.29,0000.35,-000.15,0000.41,0000.13,19.0,24.9,16.8,11.7,0675.2,30.9
2021-08-15T06:30:00Z,00000200,00000000,0001.00,0000.34,-000.10,0000.14,0000.46,0000.18,0000.03,0000.04,0000.11,19.0,24.9,16.8,11.7,0675.2,30.9
2021-08-15T06:31:00Z,00000200,00000000,0000.36,0000.26,0000.13,-000.00,0000.35,0000.33,0000.26,-000.31,0000.13,19.0,24.9,16.8,11.7,0675.2,30.9
2021-08-15T06:32:00Z,00000200,00000000,0000.84,0000.31,0000.07,0000.62,0000.23,-000.05,0000.02,0000.04,-000.42,18.9,24.9,16.8,11.7,0675.2,30.9
2021-08-15T06:33:00Z,00000200,00000000,0000.39,0000.33,0000.25,0000.59,0000.36,0000.51,-000.25,0000.13,0000.14,19.0,24.9,16.9,11.7,0675.2,30.9
2021-08-15T06:34:00Z,00000200,00000000,0000.57,0000.29,-000.31,-000.16,0000.10,-000.00,0000.89,0000.32,0000.04,19.0,24.9,16.8,11.7,0675.2,30.9
2021-08-15T06:35:00Z,00000200,00000000,0000.93,0000.01,0000.21,-000.20,0000.06,-000.12,-000.33,0000.17,0000.06,19.0,24.9,16.9,11.8,0675.2,30.9
2021-08-15T06:36:00Z,00000200,00000000,0000.29,0000.09,0000.01,0000.73,0000.30,0000.13,0000.12,-000.03,0000.19,19.0,24.9,16.8,11.7,0675.2,30.9
2021-08-15T06:37:00Z,00000200,00000000,0000.50,0000.19,0000.16,0000.01,0000.43,-000.19,0000.04,0000.26,0000.04,19.0,24.9,16.8,11.7,0675.2,30.9
2021-08-15T06:38:00Z,00000200,00000000,0000.71,0000.33,0000.11,0000.37,0000.01,0000.10,0000.14,-000.34,-000.03,19.0,24.9,16.9,11.8,0675.2,30.9
2021-08-15T06:39:00Z,00000200,00000000,0000.30,0000.37,0000.18,0000.47,0000.17,0000.05,0000.06,0000.46,0000.23,19.0,24.9,16.8,11.7,0675.2,30.9
2021-08-15T06:40:00Z,00000200,00000000,0001.04,0000.45,0000.27,0000.65,0000.19,0000.58,-000.18,-000.13,-000.01,19.0,24.9,16.9,11.8,0675.2,30.9
2021-08-15T06:41:00Z,00000200,00000000,0000.32,0000.15,0000.08,0000.02,-000.12,0000.09,0000.31,0000.10,0000.12,19.0,24.9,16.9,11.8,0675.2,30.9
2021-08-15T06:42:00Z,00000200,00000000,0000.37,0000.44,0000.34,0000.06,-000.11,0000.33,-000.03,0000.03,0000.28,19.0,24.9,16.9,11.8,0675.1,30.9
2021-08-15T06:43:00Z,00000200,00000000,0000.57,0000.72,-000.04,0000.42,0000.34,0000.21,-000.04,0000.46,-000.14,19.0,24.9,16.9,11.8,0675.2,30.9
2021-08-15T06:44:00Z,00000200,00000000,0000.84,0000.41,0000.19,0000.05,0000.33,-000.13,-000.16,-000.59,0000.18,19.0,24.9,16.9,11.8,0675.2,30.9
2021-08-15T06:45:00Z,00000200,00000000,0000.86,0000.57,-000.30,0000.01,0000.02,0000.08,0000.57,0000.37,-000.14,19.0,24.9,16.9,11.8,0675.2,30.9
2021-08-15T06:46:00Z,00000200,00000000,0000.70,0000.36,0000.13,0000.38,0000.22,-000.10,0000.22,0000.04,-000.11,19.0,24.9,16.9,11.8,0675.1,30.9
2021-08-15T06:47:00Z,00000200,00000000,0000.56,-000.10,0000.19,0000.41,0000.25,0000.07,-000.04,0000.04,0000.05,19.0,24.9,16.9,11.8,0675.2,30.9
2021-08-15T06:48:00Z,00000200,00000000,0000.35,0000.23,0000.22,0000.58,0000.26,0000.36,-000.13,0000.32,0000.40,19.0,24.9,17.0,11.8,0675.1,30.9
2021-08-15T06:49:00Z,00000200,00000000,0000.46,0000.39,0000.23,0000.23,-000.01,0000.34,-000.00,-000.16,-000.26,19.0,24.9,16.9,11.8,0675.1,30.9
2021-08-15T06:50:00Z,00000200,00000000,0000.34,0000.49,-000.01,0000.01,0000.22,-000.28,0000.26,0000.07,-000.01,19.0,24.9,17.1,11.9,0675.1,30.9
2021-08-15T06:51:00Z,00000200,00000000,0000.70,-000.06,0000.12,0000.26,0000.30,-000.11,-000.09,0000.06,0000.34,19.0,24.9,17.0,11.9,0675.1,30.9
2021-08-15T06:52:00Z,00000200,00000000,0001.05,0000.44,0000.03,0000.76,0000.09,-000.27,-000.10,-000.01,-000.17,19.0,24.9,17.1,11.9,0675.1,30.9
2021-08-15T06:53:00Z,00000200,00000000,0000.05,0000.30,0000.32,0000.55,0000.40,0000.07,0000.19,0000.05,0000.23,19.0,24.9,17.1,11.9,0675.1,30.9
2021-08-15T06:54:00Z,00000200,00000000,0000.43,0000.04,-000.12,-000.27,0000.16,0000.05,0000.12,0000.03,-000.07,19.0,24.9,17.2,12.0,0675.1,30.9
2021-08-15T06:55:00Z,00000200,00000000,0000.54,0000.30,0000.16,0000.65,0000.42,0000.32,0000.19,-000.01,0000.15,19.0,24.9,17.1,11.9,0675.1,30.9
2021-08-15T06:56:00Z,00000200,00000000,0000.71,-000.07,0000.13,0000.36,-000.05,0000.18,-000.08,0000.34,0000.02,19.0,24.9,17.1,11.9,0675.1,30.9
2021-08-15T06:57:00Z,00000200,40000000,,,,,,,-000.28,-000.49,0000.14,19.0,24.9,16.9,11.8,0675.1,30.9
2021-08-15T06:58:00Z,00000200,60000000,,,,,,,0000.18,0000.19,-000.23,18.8,25.0,17.0,11.6,0674.1,30.9
2021-08-15T06:59:00Z,00000200,20000000,,,,,,,-000.37,0000.02,-000.23,18.7,25.1,17.1,11.6,0674.0,30.9
